Stündliche Wetter Acacías

Heute, 23 Juni, Mittwoch

Zeit Temperatur Niederschläge Wind Luftdruck Luftfeuchtigkeit
00:00 +23°C° 0.5 mm 1 m/S 717 mmHg 94%
01:00 +23°C° 0.5 mm 1 m/S 717 mmHg 94%
02:00 +23°C° 0.8 mm 1 m/S 717 mmHg 94%
03:00 +23°C° 0.8 mm 1 m/S 717 mmHg 94%
04:00 +23°C° 0.8 mm 1 m/S 717 mmHg 95%
05:00 +23°C° 0.4 mm 1 m/S 717 mmHg 95%
06:00 +21°C° 0.4 mm 0 m/S 717 mmHg 95%
07:00 +21°C° 0.4 mm 0 m/S 718 mmHg 95%
08:00 +22°C° 0.1 mm 0 m/S 718 mmHg 93%
09:00 +22°C° 0.1 mm 0 m/S 718 mmHg 92%
10:00 +25°C° 0.1 mm 1 m/S 719 mmHg 90%
11:00 +26°C° 0.3 mm 1 m/S 718 mmHg 87%
12:00 +27°C° 0.3 mm 1 m/S 717 mmHg 84%
13:00 +28°C° 0.3 mm 2 m/S 717 mmHg 81%
14:00 +28°C° 0.6 mm 1 m/S 716 mmHg 83%
15:00 +27°C° 0.6 mm 1 m/S 716 mmHg 85%
16:00 +25°C° 0.6 mm 0 m/S 715 mmHg 88%
17:00 +26°C° 0.2 mm 1 m/S 715 mmHg 90%
18:00 +25°C° 0.2 mm 1 m/S 716 mmHg 93%
19:00 +24°C° 0.2 mm 1 m/S 716 mmHg 95%
20:00 +24°C° 0.6 mm 1 m/S 717 mmHg 95%
21:00 +23°C° 0.6 mm 1 m/S 717 mmHg 95%
22:00 +23°C° 0.6 mm 1 m/S 717 mmHg 95%
23:00 +23°C° 0.7 mm 1 m/S 717 mmHg 95%

Morgen, 24 Juni, Donnerstag

Zeit Temperatur Niederschläge Wind Luftdruck Luftfeuchtigkeit
00:00 +23°C° 0.7 mm 1 m/S 716 mmHg 95%
01:00 +23°C° 0.7 mm 1 m/S 716 mmHg 95%
02:00 +23°C° 0.5 mm 1 m/S 716 mmHg 94%
03:00 +23°C° 0.5 mm 1 m/S 716 mmHg 94%
04:00 +23°C° 0.5 mm 1 m/S 715 mmHg 93%
05:00 +23°C° 0.1 mm 1 m/S 716 mmHg 93%
06:00 +21°C° 0.1 mm 0 m/S 716 mmHg 93%
07:00 +21°C° 0.1 mm 0 m/S 717 mmHg 93%
08:00 +21°C° 0.2 mm 0 m/S 717 mmHg 93%
09:00 +24°C° 0.2 mm 1 m/S 717 mmHg 93%
10:00 +24°C° 0.2 mm 1 m/S 717 mmHg 93%
11:00 +24°C° 0.1 mm 1 m/S 717 mmHg 92%
12:00 +23°C° 0.1 mm 0 m/S 716 mmHg 90%
13:00 +23°C° 0.1 mm 0 m/S 715 mmHg 88%
14:00 +24°C° 0.1 mm 0 m/S 715 mmHg 86%
15:00 +24°C° 0.1 mm 0 m/S 715 mmHg 85%
16:00 +24°C° 0.1 mm 0 m/S 714 mmHg 83%
17:00 +26°C° 0.1 mm 1 m/S 715 mmHg 86%
18:00 +25°C° 0.1 mm 1 m/S 715 mmHg 89%
19:00 +24°C° 0.1 mm 1 m/S 716 mmHg 93%
20:00 +23°C° 0.1 mm 1 m/S 716 mmHg 92%
21:00 +23°C° 0.1 mm 1 m/S 716 mmHg 90%
22:00 +23°C° 0.1 mm 1 m/S 717 mmHg 89%
23:00 +23°C° 0.8 mm 1 m/S 716 mmHg 90%

übermorgen, 25 Juni, Freitag

Zeit Temperatur Niederschläge Wind Luftdruck Luftfeuchtigkeit
00:00 +22°C° 0.8 mm 1 m/S 716 mmHg 92%
01:00 +22°C° 0.8 mm 1 m/S 716 mmHg 93%
02:00 +22°C° 0.5 mm 1 m/S 715 mmHg 91%
03:00 +22°C° 0.5 mm 1 m/S 715 mmHg 90%
04:00 +22°C° 0.5 mm 1 m/S 715 mmHg 89%
05:00 +23°C° 0.3 mm 1 m/S 716 mmHg 89%
06:00 +23°C° 0.3 mm 1 m/S 716 mmHg 90%
07:00 +23°C° 0.3 mm 1 m/S 716 mmHg 90%
08:00 +24°C° 0.3 mm 1 m/S 717 mmHg 89%
09:00 +25°C° 0.3 mm 1 m/S 717 mmHg 87%
10:00 +26°C° 0.3 mm 1 m/S 717 mmHg 86%
11:00 +26°C° 0.6 mm 1 m/S 717 mmHg 85%
12:00 +27°C° 0.6 mm 1 m/S 716 mmHg 84%
13:00 +27°C° 0.6 mm 1 m/S 716 mmHg 83%
14:00 +27°C° 0.6 mm 1 m/S 715 mmHg 84%
15:00 +27°C° 0.6 mm 1 m/S 715 mmHg 85%
16:00 +25°C° 0.6 mm 0 m/S 714 mmHg 86%
17:00 +26°C° 0.4 mm 1 m/S 714 mmHg 88%
18:00 +25°C° 0.4 mm 1 m/S 715 mmHg 91%
19:00 +24°C° 0.4 mm 1 m/S 715 mmHg 93%
20:00 +23°C° 0.3 mm 1 m/S 716 mmHg 93%
21:00 +23°C° 0.3 mm 1 m/S 716 mmHg 93%
22:00 +23°C° 0.3 mm 2 m/S 717 mmHg 92%
23:00 +21°C° 0 mm 2 m/S 716 mmHg 92%

26 Juni, Samstag

Zeit Temperatur Niederschläge Wind Luftdruck Luftfeuchtigkeit
00:00 +21°C° 0 mm 2 m/S 716 mmHg 91%
01:00 +21°C° 0 mm 2 m/S 716 mmHg 90%
02:00 +21°C° 0.2 mm 2 m/S 715 mmHg 89%
03:00 +22°C° 0.2 mm 1 m/S 715 mmHg 88%
04:00 +22°C° 0.2 mm 1 m/S 715 mmHg 87%
05:00 +23°C° 0.1 mm 1 m/S 715 mmHg 86%
06:00 +23°C° 0.1 mm 1 m/S 716 mmHg 85%
07:00 +24°C° 0.1 mm 1 m/S 716 mmHg 85%
08:00 +25°C° 0.1 mm 1 m/S 717 mmHg 82%
09:00 +26°C° 0.1 mm 1 m/S 717 mmHg 80%
10:00 +27°C° 0.1 mm 1 m/S 717 mmHg 78%
11:00 +28°C° 0.7 mm 1 m/S 717 mmHg 78%
12:00 +28°C° 0.7 mm 1 m/S 716 mmHg 79%
13:00 +28°C° 0.7 mm 1 m/S 715 mmHg 79%
14:00 +28°C° 0.8 mm 1 m/S 715 mmHg 81%
15:00 +28°C° 0.8 mm 1 m/S 715 mmHg 82%
16:00 +25°C° 0.8 mm 0 m/S 714 mmHg 84%
17:00 +24°C° 0.3 mm 0 m/S 715 mmHg 87%
18:00 +25°C° 0.3 mm 1 m/S 715 mmHg 89%
19:00 +24°C° 0.3 mm 1 m/S 715 mmHg 92%
20:00 +24°C° 0.3 mm 1 m/S 716 mmHg 92%
21:00 +23°C° 0.3 mm 1 m/S 716 mmHg 92%
22:00 +23°C° 0.3 mm 1 m/S 717 mmHg 93%
23:00 +23°C° 0.6 mm 1 m/S 716 mmHg 93%

27 Juni, Sonntag

Zeit Temperatur Niederschläge Wind Luftdruck Luftfeuchtigkeit
00:00 +23°C° 0.6 mm 1 m/S 716 mmHg 94%
01:00 +23°C° 0.6 mm 1 m/S 715 mmHg 95%
02:00 +23°C° 0.4 mm 1 m/S 715 mmHg 95%
03:00 +23°C° 0.4 mm 1 m/S 715 mmHg 94%
04:00 +23°C° 0.4 mm 1 m/S 715 mmHg 94%
05:00 +23°C° 0.3 mm 1 m/S 716 mmHg 94%
06:00 +23°C° 0.3 mm 1 m/S 716 mmHg 94%
07:00 +23°C° 0.3 mm 1 m/S 717 mmHg 94%
08:00 +24°C° 0.4 mm 1 m/S 717 mmHg 91%
09:00 +25°C° 0.4 mm 1 m/S 717 mmHg 89%
10:00 +26°C° 0.4 mm 1 m/S 717 mmHg 87%
11:00 +25°C° 0.6 mm 1 m/S 717 mmHg 89%
12:00 +25°C° 0.6 mm 1 m/S 717 mmHg 92%
13:00 +25°C° 0.6 mm 1 m/S 716 mmHg 94%
14:00 +25°C° 0.5 mm 1 m/S 716 mmHg 94%
15:00 +23°C° 0.5 mm 0 m/S 716 mmHg 93%
16:00 +23°C° 0.5 mm 0 m/S 715 mmHg 93%
17:00 +22°C° 0.8 mm 0 m/S 716 mmHg 94%
18:00 +24°C° 0.8 mm 1 m/S 716 mmHg 96%
19:00 +23°C° 0.8 mm 1 m/S 717 mmHg 97%
20:00 +23°C° 0.7 mm 1 m/S 717 mmHg 97%
21:00 +23°C° 0.7 mm 1 m/S 717 mmHg 97%
22:00 +23°C° 0.7 mm 1 m/S 717 mmHg 97%
23:00 +23°C° 1 mm 1 m/S 717 mmHg 96%

28 Juni, Montag

Zeit Temperatur Niederschläge Wind Luftdruck Luftfeuchtigkeit
00:00 +23°C° 1 mm 1 m/S 717 mmHg 96%
01:00 +23°C° 1 mm 1 m/S 716 mmHg 95%
02:00 +23°C° 0.4 mm 1 m/S 716 mmHg 95%
03:00 +23°C° 0.4 mm 1 m/S 716 mmHg 95%
04:00 +23°C° 0.4 mm 1 m/S 716 mmHg 94%
05:00 +23°C° 0.2 mm 1 m/S 717 mmHg 94%
06:00 +23°C° 0.2 mm 1 m/S 717 mmHg 94%
07:00 +23°C° 0.2 mm 1 m/S 718 mmHg 94%
08:00 +24°C° 0.3 mm 1 m/S 718 mmHg 91%
09:00 +25°C° 0.3 mm 1 m/S 718 mmHg 89%
10:00 +27°C° 0.3 mm 2 m/S 719 mmHg 86%
11:00 +26°C° 0.9 mm 2 m/S 718 mmHg 88%
12:00 +26°C° 0.9 mm 2 m/S 718 mmHg 90%
13:00 +26°C° 0.9 mm 2 m/S 717 mmHg 92%
14:00 +26°C° 0.4 mm 1 m/S 717 mmHg 92%
15:00 +25°C° 0.4 mm 1 m/S 717 mmHg 93%
16:00 +25°C° 0.4 mm 1 m/S 716 mmHg 93%
17:00 +25°C° 0.5 mm 1 m/S 717 mmHg 94%
18:00 +24°C° 0.5 mm 1 m/S 717 mmHg 95%
19:00 +21°C° 0.5 mm 0 m/S 717 mmHg 96%
20:00 +23°C° 0.1 mm 1 m/S 718 mmHg 96%
21:00 +23°C° 0.1 mm 1 m/S 718 mmHg 95%
22:00 +23°C° 0.1 mm 1 m/S 718 mmHg 95%
23:00 +23°C° 0.1 mm 1 m/S 718 mmHg 94%
Mehr zeigen

Wir brauchen deine Erlaubnis

Meteoprog und unser Service Anbieter werden persönliche Daten aufbewahren, so wie Cookies, Geräte Bezeichnung oder ähnliche Technologien von deinem Gerät und Prozess, so wie Persönliche Daten Inhalte und Werbungen, genauso wie social Media und den Verkehr zu analysieren.

  • Aufbewahrung und/oder Zugang zu deiner Geräte Informationen.

    Cookies, Geräte Bezeichnung oder andere Informationen, können aufbewahrt oder Zugang zu deinem Gerät erhalten, für den Grund, der oben angegeben wird.

  • Personalisierte Werbung und Inhalte, Messungen, Einblick in das Publikum und Produkt Entwicklung.

    Werbungen und Inhalte können personalisiert werden, basierend auf ein Profil. Mehr Daten können besser personalisierte Werbungen und Inhalte hinzufügen. Werbung und Inhalte können gezeigt und gemessen werden. Einblicke über das Publikum, welche die Werbung gesehen haben und den Inhalt, können abgeleitet werden. So wie Daten können genutzt werden, um es zu verbessern oder die Benutzer Erfahrung zu verbessern das System und die Software.

Wenn du “Ich stimme zu” klickst, erlaubst du uns, die Cookies zu benutzen die Geräte Bezeichnung, den Web oder ähnliche Technologien zu benutzen. Deine Settings, können in deinem Gerät bei deinem Browser geändert werden.

Für den bestimmten Zweck, berechtigten Interessen beruhen darauf, mehr als auf den Inhalt. Du kannst mehr darüber in unseren Privaten und Cookie Politik lesen.